FW5225 Weather Reports


time (UTC)temp
C
wind
direction
speed
KPH
gust
KPH
rain 1hr
cm
rain 24hr
cm
rain mn
cm
humidity
%
barometer
mb
20260505125034 16 268 3.2 8.0 0.00 0.00 0.00 53 1008.9
20260505124535 16 271 0.0 4.8 0.00 0.00 0.00 54 1008.9
20260505124033 16 322 1.6 4.8 0.00 0.00 0.00 54 1008.8
20260505123533 16 268 1.6 6.4 0.00 0.00 0.00 54 1008.8
20260505123034 16 235 0.0 6.4 0.00 0.00 0.00 55 1008.8
20260505122533 16 248 0.0 6.4 0.00 0.00 0.00 55 1008.8
20260505122033 16 286 1.6 6.4 0.00 0.00 0.00 55 1008.6
20260505121538 16 231 0.0 4.8 0.00 0.00 0.00 56 1008.8
20260505121033 16 226 0.0 4.8 0.00 0.00 0.00 55 1008.8
20260505120535 16 216 0.0 4.8 0.00 0.00 0.00 55 1008.7
20260505120032 16 231 0.0 4.8 0.00 0.00 0.00 56 1008.6
20260505115531 16 225 0.0 3.2 0.00 0.00 0.00 56 1008.6
20260505115031 16 263 0.0 4.8 0.00 0.00 0.00 56 1008.5
20260505114530 17 254 0.0 4.8 0.00 0.00 0.00 57 1008.5
20260505114030 17 217 1.6 4.8 0.00 0.00 0.00 57 1008.5
20260505113529 17 217 0.0 4.8 0.00 0.00 0.00 57 1008.6
20260505113038 17 256 0.0 3.2 0.00 0.00 0.00 56 1008.5
20260505112527 17 192 0.0 3.2 0.00 0.00 0.00 55 1008.5
20260505112027 17 187 0.0 1.6 0.00 0.00 0.00 55 1008.5
20260505111539 17 195 0.0 3.2 0.00 0.00 0.00 54 1008.4
20260505111028 17 193 0.0 3.2 0.00 0.00 0.00 54 1008.4
20260505110524 17 209 0.0 3.2 0.00 0.00 0.00 54 1008.4
20260505102019 18 207 1.6 8.0 0.00 0.00 0.00 51 1008.6
20260505101529 18 186 1.6 8.0 0.00 0.00 0.00 51 1008.6
20260505101018 18 213 1.6 8.0 0.00 0.00 0.00 51 1008.6
20260505100517 18 200 1.6 8.0 0.00 0.00 0.00 51 1008.6
20260505100016 18 193 0.0 6.4 0.00 0.00 0.00 51 1008.7
20260505095516 18 232 1.6 6.4 0.00 0.00 0.00 51 1008.8
20260505095015 18 251 0.0 6.4 0.00 0.00 0.00 51 1008.8
20260505094514 18 239 1.6 6.4 0.00 0.00 0.00 51 1008.9
20260505094013 18 243 0.0 11.3 0.00 0.00 0.00 51 1009.0
20260505093512 18 234 1.6 11.3 0.00 0.00 0.00 50 1009.1
20260505093012 18 257 4.8 9.7 0.00 0.00 0.00 50 1009.1
20260505092510 19 215 3.2 11.3 0.00 0.00 0.00 50 1009.1
20260505092009 19 249 1.6 11.3 0.00 0.00 0.00 50 1009.2
20260505091510 19 259 3.2 19.3 0.00 0.00 0.00 49 1009.4
20260505091010 19 269 6.4 19.3 0.00 0.00 0.00 49 1009.4
20260505090508 19 264 6.4 19.3 0.00 0.00 0.00 48 1009.3
20260505090007 19 207 6.4 16.1 0.00 0.00 0.00 48 1009.3
20260505085509 19 273 6.4 16.1 0.00 0.00 0.00 47 1009.3
20260505085007 19 241 6.4 14.5 0.00 0.00 0.00 48 1009.6
20260505084521 19 275 3.2 14.5 0.00 0.00 0.00 49 1009.4
20260505084004 19 225 6.4 14.5 0.00 0.00 0.00 49 1009.4
20260505083503 20 257 6.4 12.9 0.00 0.00 0.00 49 1009.6
20260505083005 20 241 1.6 12.9 0.00 0.00 0.00 49 1009.6
20260505082503 20 292 4.8 16.1 0.00 0.00 0.00 49 1009.7
20260505082003 20 254 4.8 12.9 0.00 0.00 0.00 48 1009.8
20260505081501 20 195 4.8 12.9 0.00 0.00 0.00 47 1009.8
20260505081002 20 281 3.2 9.7 0.00 0.00 0.00 47 1009.9
20260505080503 20 275 3.2 16.1 0.00 0.00 0.00 46 1010.0
20260505080002 20 213 4.8 16.1 0.00 0.00 0.00 47 1010.0
20260505075600 20 221 3.2 11.3 0.00 0.00 0.00 47 1010.0
20260505075059 20 258 3.2 11.3 0.00 0.00 0.00 47 1009.9
20260505074559 20 238 3.2 9.7 0.00 0.00 0.00 44 1010.0
20260505074057 20 233 3.2 9.7 0.00 0.00 0.00 41 1010.0
20260505073557 20 240 0.0 8.0 0.00 0.00 0.00 39 1009.9
20260505073057 20 231 3.2 8.0 0.00 0.00 0.00 39 1009.9
20260505072600 20 238 1.6 9.7 0.00 0.00 0.00 37 1009.6
20260505072056 20 267 1.6 9.7 0.00 0.00 0.00 36 1009.7
20260505071559 20 256 1.6 9.7 0.00 0.00 0.00 36 1009.7
20260505071053 21 253 3.2 11.3 0.00 0.00 0.00 35 1009.6
20260505070552 21 280 4.8 11.3 0.00 0.00 0.00 34 1009.6
20260505065551 21 239 3.2 12.9 0.00 0.00 0.00 33 1009.7
20260505065051 21 239 0.0 8.0 0.00 0.00 0.00 35 1009.6
20260505064555 21 240 0.0 8.0 0.00 0.00 0.00 34 1009.6
20260505064049 21 231 0.0 6.4 0.00 0.00 0.00 35 1009.7
20260505063550 21 261 1.6 6.4 0.00 0.00 0.00 34 1009.4
20260505063049 21 268 1.6 8.0 0.00 0.00 0.00 35 1009.5
20260505062549 21 255 1.6 11.3 0.00 0.00 0.00 35 1009.6
20260505062052 21 290 4.8 9.7 0.00 0.00 0.00 36 1009.5
20260505061610 21 261 0.0 8.0 0.00 0.00 0.00 38 1009.5
20260505061047 21 261 3.2 9.7 0.00 0.00 0.00 39 1009.4
20260505060547 21 259 3.2 8.0 0.00 0.00 0.00 39 1009.4
20260505060053 21 242 0.0 4.8 0.00 0.00 0.00 39 1009.3
20260505055550 21 201 1.6 4.8 0.00 0.00 0.00 39 1009.2
20260505055047 21 225 1.6 6.4 0.00 0.00 0.00 39 1009.1
20260505054549 21 255 1.6 6.4 0.00 0.00 0.00 39 1009.0
20260505054045 21 252 1.6 11.3 0.00 0.00 0.00 39 1009.2
20260505053545 21 223 3.2 11.3 0.00 0.00 0.00 39 1009.2
20260505053045 21 231 1.6 4.8 0.00 0.00 0.00 39 1009.3
20260505052549 21 198 1.6 6.4 0.00 0.00 0.00 39 1009.4
20260505052045 21 227 0.0 6.4 0.00 0.00 0.00 39 1009.2
20260505051544 21 272 3.2 8.0 0.00 0.00 0.00 39 1009.2
20260505051045 21 293 1.6 8.0 0.00 0.00 0.00 39 1009.3
20260505050543 21 297 3.2 8.0 0.00 0.00 0.00 39 1009.5
20260505041540 21 262 1.6 4.8 0.00 0.00 0.00 41 1009.4
20260505041044 21 225 1.6 8.0 0.00 0.00 0.00 41 1009.4
20260505040539 21 260 1.6 8.0 0.00 0.00 0.00 41 1009.3
20260505040055 22 275 0.0 8.0 0.00 0.00 0.00 41 1009.3
20260505035542 22 282 3.2 11.3 0.00 0.00 0.00 41 1009.4
20260505035040 22 234 6.4 11.3 0.00 0.00 0.00 41 1009.3
20260505034542 22 250 4.8 12.9 0.00 0.00 0.00 42 1009.3
20260505034037 22 275 3.2 9.7 0.00 0.00 0.00 42 1009.2
20260505033537 22 241 3.2 8.0 0.00 0.00 0.00 41 1009.2
20260505033037 22 279 1.6 8.0 0.00 0.00 0.00 41 1009.1
20260505032537 22 300 1.6 8.0 0.00 0.00 0.00 41 1008.8
20260505032037 22 251 0.0 4.8 0.00 0.00 0.00 40 1008.8
20260505031546 22 292 0.0 4.8 0.00 0.00 0.00 40 1008.6
20260505031036 22 266 3.2 4.8 0.00 0.00 0.00 40 1008.7
20260505030536 22 281 1.6 8.0 0.00 0.00 0.00 39 1008.6
20260505030040 22 265 1.6 8.0 0.00 0.00 0.00 39 1008.6
20260505025536 22 294 1.6 6.4 0.00 0.00 0.00 38 1008.6
20260505025038 22 271 0.0 6.4 0.00 0.00 0.00 38 1008.5
20260505024537 22 279 1.6 8.0 0.00 0.00 0.00 37 1008.4
20260505024035 22 250 3.2 8.0 0.00 0.00 0.00 36 1008.5
20260505023535 22 264 1.6 6.4 0.00 0.00 0.00 36 1008.5
20260505023035 22 290 3.2 8.0 0.00 0.00 0.00 36 1008.6
20260505022535 22 240 3.2 9.7 0.00 0.00 0.00 35 1008.6
20260505022034 22 259 0.0 9.7 0.00 0.00 0.00 35 1008.6
20260505021536 22 261 1.6 6.4 0.00 0.00 0.00 34 1008.6
20260505021034 22 226 1.6 8.0 0.00 0.00 0.00 34 1008.4
20260505020534 22 257 1.6 8.0 0.00 0.00 0.00 34 1008.4
20260505020040 22 279 1.6 8.0 0.00 0.00 0.00 34 1008.3
20260505015534 22 286 1.6 8.0 0.00 0.00 0.00 34 1008.3
20260505015034 22 186 1.6 9.7 0.00 0.00 0.00 34 1008.3
20260505014536 22 241 3.2 9.7 0.00 0.00 0.00 34 1008.4
20260505014034 22 229 3.2 11.3 0.00 0.00 0.00 33 1008.4
20260505013532 23 270 3.2 9.7 0.00 0.00 0.00 33 1008.5
20260505013033 23 278 1.6 8.0 0.00 0.00 0.00 33 1008.4
20260505012533 23 296 1.6 8.0 0.00 0.00 0.00 33 1008.3
20260505012035 23 286 1.6 9.7 0.00 0.00 0.00 34 1008.2
20260505011534 23 216 0.0 9.7 0.00 0.00 0.00 33 1008.3
20260505011032 23 284 3.2 11.3 0.00 0.00 0.00 34 1008.4
20260505010535 23 263 3.2 12.9 0.00 0.00 0.00 34 1008.5
20260505010033 23 267 4.8 12.9 0.00 0.00 0.00 34 1008.4
20260505005532 23 281 1.6 8.0 0.00 0.00 0.00 34 1008.4
20260505005031 23 198 3.2 8.0 0.00 0.00 0.00 33 1008.4
20260505004532 23 189 1.6 9.7 0.00 0.00 0.00 33 1008.5
20260505004030 23 185 1.6 12.9 0.00 0.00 0.00 34 1008.4
20260505003530 23 241 1.6 9.7 0.00 0.00 0.00 33 1008.5
20260505003030 23 258 3.2 8.0 0.00 0.00 0.00 33 1008.5
20260505002530 23 228 1.6 9.7 0.00 0.00 0.00 33 1008.5
20260505002030 23 286 4.8 9.7 0.00 0.00 0.00 33 1008.6
20260505001530 23 250 3.2 9.7 0.00 0.00 0.00 32 1008.6
20260505001029 23 222 3.2 9.7 0.00 0.00 0.00 33 1008.7
20260505000529 23 165 0.0 9.7 0.00 0.00 0.00 33 1008.6
20260505000042 23 243 3.2 17.7 0.00 0.00 0.00 33 1008.6
20260504235529 24 317 4.8 17.7 0.00 0.00 0.00 34 1008.7
20260504235029 24 202 1.6 12.9 0.00 0.00 0.00 34 1008.6
20260504234528 24 238 1.6 11.3 0.00 0.00 0.00 35 1008.6
20260504234027 24 236 1.6 9.7 0.00 0.00 0.00 35 1008.6
20260504233527 24 176 1.6 11.3 0.00 0.00 0.00 36 1008.6
20260504233027 24 254 4.8 11.3 0.00 0.00 0.00 35 1008.5
20260504232528 25 290 1.6 11.3 0.00 0.00 0.00 35 1008.7
20260504232027 25 217 3.2 11.3 0.00 0.00 0.00 35 1008.7
20260504231527 25 231 1.6 11.3 0.00 0.00 0.00 34 1008.6
20260504231027 25 229 1.6 11.3 0.00 0.00 0.00 36 1008.6
20260504230527 25 283 3.2 11.3 0.00 0.00 0.00 35 1008.5
20260504230026 25 190 3.2 9.7 0.00 0.00 0.00 36 1008.6
20260504225531 25 265 4.8 9.7 0.00 0.00 0.00 36 1008.6
20260504225026 25 281 3.2 11.3 0.00 0.00 0.00 35 1008.5
20260504224526 25 225 3.2 11.3 0.00 0.00 0.00 36 1008.7
20260504224025 25 189 1.6 9.7 0.00 0.00 0.00 36 1008.7
20260504223525 25 192 3.2 11.3 0.00 0.00 0.00 35 1008.8
20260504223025 24 156 1.6 12.9 0.00 0.00 0.00 36 1008.9
20260504222524 24 294 3.2 12.9 0.00 0.00 0.00 36 1008.9
20260504222024 25 252 4.8 11.3 0.00 0.00 0.00 35 1009.0
20260504221527 25 213 1.6 11.3 0.00 0.00 0.00 37 1009.0
20260504221024 25 186 3.2 11.3 0.00 0.00 0.00 36 1009.0
20260504220524 25 279 1.6 12.9 0.00 0.00 0.00 36 1009.1
20260504220040 24 275 1.6 11.3 0.00 0.00 0.00 35 1009.2
20260504215523 25 182 3.2 11.3 0.00 0.00 0.00 37 1009.2
20260504215026 24 234 3.2 11.3 0.00 0.00 0.00 37 1009.3
20260504214524 24 254 4.8 12.9 0.00 0.00 0.00 37 1009.3
20260504214022 25 232 4.8 12.9 0.00 0.00 0.00 37 1009.3
20260504213524 25 214 3.2 9.7 0.00 0.00 0.00 39 1009.5
20260504213022 24 188 1.6 9.7 0.00 0.00 0.00 40 1009.7
20260504212521 24 198 3.2 11.3 0.00 0.00 0.00 40 1009.7
20260504212024 23 193 3.2 14.5 0.00 0.00 0.00 40 1009.7
20260504211521 23 201 6.4 14.5 0.00 0.00 0.00 39 1009.8
20260504211019 23 244 3.2 12.9 0.00 0.00 0.00 41 1009.9
20260504210519 23 296 1.6 11.3 0.00 0.00 0.00 41 1010.0
20260504210019 23 224 3.2 12.9 0.00 0.00 0.00 42 1010.0
20260504205519 23 180 4.8 12.9 0.00 0.00 0.00 42 1010.1
20260504205019 23 279 3.2 8.0 0.00 0.00 0.00 42 1009.9
20260504204533 23 204 3.2 6.4 0.00 0.00 0.00 42 1009.9
20260504204018 23 202 1.6 11.3 0.00 0.00 0.00 42 1010.0
20260504203518 23 207 3.2 14.5 0.00 0.00 0.00 41 1010.1
20260504203017 23 195 1.6 12.9 0.00 0.00 0.00 42 1010.2
20260504202518 23 224 4.8 12.9 0.00 0.00 0.00 41 1010.5
20260504202017 23 191 3.2 9.7 0.00 0.00 0.00 41 1010.4
20260504201517 23 225 1.6 9.7 0.00 0.00 0.00 41 1010.4
20260504201017 22 270 0.0 11.3 0.00 0.00 0.00 42 1010.5
20260504200517 22 244 4.8 11.3 0.00 0.00 0.00 41 1010.5
20260504200016 22 242 1.6 12.9 0.00 0.00 0.00 41 1010.5
20260504195516 22 271 8.0 12.9 0.00 0.00 0.00 41 1010.4
20260504195015 22 225 1.6 11.3 0.00 0.00 0.00 40 1010.4
20260504194516 22 223 4.8 11.3 0.00 0.00 0.00 40 1010.6
20260504194014 22 267 4.8 11.3 0.00 0.00 0.00 39 1010.6
20260504193515 22 306 6.4 11.3 0.00 0.00 0.00 39 1010.6
20260504193015 22 285 3.2 9.7 0.00 0.00 0.00 40 1010.2
20260504192514 22 273 1.6 14.5 0.00 0.00 0.00 40 1010.5
20260504192013 21 242 6.4 14.5 0.00 0.00 0.00 40 1010.8
20260504191513 21 242 3.2 8.0 0.00 0.00 0.00 40 1010.4
20260504191014 21 198 1.6 14.5 0.00 0.00 0.00 40 1009.9
20260504190516 21 296 4.8 14.5 0.00 0.00 0.00 41 1010.2
20260504190014 21 262 3.2 9.7 0.00 0.00 0.00 41 1010.1
20260504185512 21 294 3.2 9.7 0.00 0.00 0.00 40 1010.3
20260504185016 21 207 1.6 12.9 0.00 0.00 0.00 40 1009.9
20260504184512 21 281 1.6 12.9 0.00 0.00 0.00 41 1010.2
20260504184015 21 258 3.2 12.9 0.00 0.00 0.00 41 1010.2
20260504183512 21 319 4.8 12.9 0.00 0.00 0.00 42 1010.4
20260504183011 21 218 4.8 17.7 0.00 0.00 0.00 42 1010.3
20260504182510 21 301 9.7 17.7 0.00 0.00 0.00 43 1010.4
20260504182010 21 287 9.7 17.7 0.00 0.00 0.00 43 1010.7
20260504181516 21 263 9.7 17.7 0.00 0.00 0.00 43 1010.6
20260504181010 21 245 4.8 17.7 0.00 0.00 0.00 45 1010.6
20260504180510 21 266 8.0 14.5 0.00 0.00 0.00 43 1010.7
20260504180010 21 269 4.8 14.5 0.00 0.00 0.00 44 1010.5
20260504175509 20 281 4.8 25.7 0.00 0.00 0.00 44 1010.3
20260504175011 20 265 6.4 25.7 0.00 0.00 0.00 45 1010.5
20260504174507 20 290 6.4 17.7 0.00 0.00 0.00 46 1010.5
20260504174007 20 281 9.7 17.7 0.00 0.00 0.00 46 1010.5
20260504173505 20 278 6.4 16.1 0.00 0.00 0.00 47 1010.4
20260504173005 20 227 6.4 20.9 0.00 0.00 0.00 48 1010.3
20260504172505 20 228 9.7 20.9 0.00 0.00 0.00 49 1010.4
20260504172008 20 250 9.7 19.3 0.00 0.00 0.00 50 1010.4
20260504171507 20 186 8.0 17.7 0.00 0.00 0.00 50 1010.1
20260504171005 20 232 3.2 12.9 0.00 0.00 0.00 51 1009.8
20260504170501 20 294 6.4 14.5 0.00 0.00 0.00 50 1009.7
20260504151048 20 267 8.0 19.3 0.00 0.00 0.00 53 1009.7
20260504150547 20 254 9.7 17.7 0.00 0.00 0.00 52 1009.6
20260504141034 20 290 3.2 11.3 0.00 0.00 0.00 46 1008.9
20260504140534 20 220 1.6 9.7 0.00 0.00 0.00 46 1008.8